Location: Archemont
(49.1579°N, 1.7598°E)
Time: 12:59:12
(UTC+00:00)

Transit 2A - Pass Details

Date: 16 April 2024
Orbit: 594 x 958 km, 66.7° (Epoch: 27 May)

Event Time Altitude Azimuth Distance (km) Brightness Sun altitude
Rises 15:49:08 0° 322° (NW) 3,211 9.5 27.9°
Reaches altitude 10° 15:51:26 10° 321° (NW) 2,337 8.9 27.5°
Maximum altitude 15:56:48 72° 238° (WSW) 881 7.1 26.7°
Drops below altitude 10° 16:02:43 10° 155° (SSE) 2,559 8.7 25.7°
Sets 16:05:20 0° 153° (SSE) 3,538 9.3 25.3°
